#datetime,building,power
2023-07-08T00:00:00,mcc,49.92
2023-07-08T00:01:00,mcc,50.70
2023-07-08T00:02:00,mcc,50.25
2023-07-08T00:03:00,mcc,52.01
2023-07-08T00:04:00,mcc,50.66
2023-07-08T00:05:00,mcc,50.62
2023-07-08T00:06:00,mcc,49.65
2023-07-08T00:07:00,mcc,50.08
2023-07-08T00:08:00,mcc,46.30
2023-07-08T00:09:00,mcc,46.79
2023-07-08T00:10:00,mcc,48.17
2023-07-08T00:11:00,mcc,48.46
2023-07-08T00:12:00,mcc,47.23
2023-07-08T00:13:00,mcc,47.71
2023-07-08T00:14:00,mcc,48.65
2023-07-08T00:15:00,mcc,45.88
2023-07-08T00:16:00,mcc,46.20
2023-07-08T00:17:00,mcc,50.30
2023-07-08T00:18:00,mcc,50.91
2023-07-08T00:19:00,mcc,48.91
2023-07-08T00:20:00,mcc,48.05
2023-07-08T00:21:00,mcc,55.20
2023-07-08T00:22:00,mcc,50.75
2023-07-08T00:23:00,mcc,50.94
2023-07-08T00:24:00,mcc,50.46
2023-07-08T00:25:00,mcc,50.29
2023-07-08T00:26:00,mcc,49.16
2023-07-08T00:27:00,mcc,44.27
2023-07-08T00:28:00,mcc,48.29
2023-07-08T00:29:00,mcc,47.14
2023-07-08T00:30:00,mcc,47.58
2023-07-08T00:31:00,mcc,48.08
2023-07-08T00:32:00,mcc,50.59
2023-07-08T00:33:00,mcc,50.68
2023-07-08T00:34:00,mcc,51.45
2023-07-08T00:35:00,mcc,51.51
2023-07-08T00:36:00,mcc,45.50
2023-07-08T00:37:00,mcc,46.94
2023-07-08T00:38:00,mcc,55.33
2023-07-08T00:39:00,mcc,47.69
2023-07-08T00:40:00,mcc,47.16
2023-07-08T00:41:00,mcc,46.14
2023-07-08T00:42:00,mcc,45.89
2023-07-08T00:43:00,mcc,45.49
2023-07-08T00:44:00,mcc,44.76
2023-07-08T00:45:00,mcc,43.29
2023-07-08T00:46:00,mcc,43.61
2023-07-08T00:47:00,mcc,43.87
2023-07-08T00:48:00,mcc,43.39
2023-07-08T00:49:00,mcc,40.71
2023-07-08T00:50:00,mcc,41.34
2023-07-08T00:51:00,mcc,40.53
2023-07-08T00:52:00,mcc,40.52
2023-07-08T00:53:00,mcc,40.45
2023-07-08T00:54:00,mcc,40.20
2023-07-08T00:55:00,mcc,41.21
2023-07-08T00:56:00,mcc,42.02
2023-07-08T00:57:00,mcc,42.73
2023-07-08T00:58:00,mcc,43.23
2023-07-08T00:59:00,mcc,50.68
2023-07-08T01:00:00,mcc,43.13
2023-07-08T01:01:00,mcc,43.34
2023-07-08T01:02:00,mcc,43.39
2023-07-08T01:03:00,mcc,42.22
2023-07-08T01:04:00,mcc,41.38
2023-07-08T01:05:00,mcc,40.23
2023-07-08T01:06:00,mcc,42.12
2023-07-08T01:07:00,mcc,42.81
2023-07-08T01:08:00,mcc,42.80
2023-07-08T01:09:00,mcc,43.34
2023-07-08T01:10:00,mcc,41.75
2023-07-08T01:11:00,mcc,41.39
2023-07-08T01:12:00,mcc,41.58
2023-07-08T01:13:00,mcc,41.30
2023-07-08T01:14:00,mcc,41.20
2023-07-08T01:15:00,mcc,40.96
2023-07-08T01:16:00,mcc,41.48
2023-07-08T01:17:00,mcc,41.50
2023-07-08T01:18:00,mcc,41.05
2023-07-08T01:19:00,mcc,50.47
2023-07-08T01:20:00,mcc,41.29
2023-07-08T01:21:00,mcc,40.59
2023-07-08T01:22:00,mcc,40.40
2023-07-08T01:23:00,mcc,42.99
2023-07-08T01:24:00,mcc,40.96
2023-07-08T01:25:00,mcc,41.32
2023-07-08T01:26:00,mcc,41.50
2023-07-08T01:27:00,mcc,44.40
2023-07-08T01:28:00,mcc,44.95
2023-07-08T01:29:00,mcc,46.04
2023-07-08T01:30:00,mcc,48.25
2023-07-08T01:31:00,mcc,44.94
2023-07-08T01:32:00,mcc,43.19
2023-07-08T01:33:00,mcc,41.97
2023-07-08T01:34:00,mcc,42.18
2023-07-08T01:35:00,mcc,42.41
2023-07-08T01:36:00,mcc,42.38
2023-07-08T01:37:00,mcc,43.40
2023-07-08T01:38:00,mcc,44.44
2023-07-08T01:39:00,mcc,51.70
2023-07-08T01:40:00,mcc,41.88
2023-07-08T01:41:00,mcc,42.63
2023-07-08T01:42:00,mcc,41.69
2023-07-08T01:43:00,mcc,40.74
2023-07-08T01:44:00,mcc,41.30
2023-07-08T01:45:00,mcc,42.55
2023-07-08T01:46:00,mcc,42.75
2023-07-08T01:47:00,mcc,39.08
2023-07-08T01:48:00,mcc,41.12
2023-07-08T01:49:00,mcc,40.89
2023-07-08T01:50:00,mcc,42.14
2023-07-08T01:51:00,mcc,42.11
2023-07-08T01:52:00,mcc,41.45
2023-07-08T01:53:00,mcc,42.44
2023-07-08T01:54:00,mcc,41.95
2023-07-08T01:55:00,mcc,42.17
2023-07-08T01:56:00,mcc,43.61
2023-07-08T01:57:00,mcc,41.94
2023-07-08T01:58:00,mcc,40.16
2023-07-08T01:59:00,mcc,41.38
2023-07-08T02:00:00,mcc,42.87
2023-07-08T02:01:00,mcc,37.95
2023-07-08T02:02:00,mcc,38.33
2023-07-08T02:03:00,mcc,37.11
2023-07-08T02:04:00,mcc,37.64
2023-07-08T02:05:00,mcc,37.23
2023-07-08T02:06:00,mcc,36.03
2023-07-08T02:07:00,mcc,35.92
2023-07-08T02:08:00,mcc,36.63
2023-07-08T02:09:00,mcc,37.44
2023-07-08T02:10:00,mcc,36.35
2023-07-08T02:11:00,mcc,37.78
2023-07-08T02:12:00,mcc,38.66
2023-07-08T02:13:00,mcc,38.56
2023-07-08T02:14:00,mcc,38.93
2023-07-08T02:15:00,mcc,40.38
2023-07-08T02:16:00,mcc,37.66
2023-07-08T02:17:00,mcc,40.07
2023-07-08T02:18:00,mcc,36.80
2023-07-08T02:19:00,mcc,45.03
2023-07-08T02:20:00,mcc,36.25
2023-07-08T02:21:00,mcc,37.43
2023-07-08T02:22:00,mcc,36.57
2023-07-08T02:23:00,mcc,36.38
2023-07-08T02:24:00,mcc,39.74
2023-07-08T02:25:00,mcc,39.86
2023-07-08T02:26:00,mcc,38.28
2023-07-08T02:27:00,mcc,37.33
2023-07-08T02:28:00,mcc,37.38
2023-07-08T02:29:00,mcc,36.09
2023-07-08T02:30:00,mcc,34.41
2023-07-08T02:31:00,mcc,34.51
2023-07-08T02:32:00,mcc,46.26
2023-07-08T02:33:00,mcc,38.31
2023-07-08T02:34:00,mcc,36.82
2023-07-08T02:35:00,mcc,37.89
2023-07-08T02:36:00,mcc,38.18
2023-07-08T02:37:00,mcc,37.29
2023-07-08T02:38:00,mcc,37.90
2023-07-08T02:39:00,mcc,36.83
2023-07-08T02:40:00,mcc,47.29
2023-07-08T02:41:00,mcc,47.39
2023-07-08T02:42:00,mcc,44.94
2023-07-08T02:43:00,mcc,35.73
2023-07-08T02:44:00,mcc,37.96
2023-07-08T02:45:00,mcc,36.74
2023-07-08T02:46:00,mcc,37.77
2023-07-08T02:47:00,mcc,38.39
2023-07-08T02:48:00,mcc,39.07
2023-07-08T02:49:00,mcc,38.34
2023-07-08T02:50:00,mcc,35.77
2023-07-08T02:51:00,mcc,35.18
2023-07-08T02:52:00,mcc,35.06
2023-07-08T02:53:00,mcc,33.19
2023-07-08T02:54:00,mcc,35.11
2023-07-08T02:55:00,mcc,36.04
2023-07-08T02:56:00,mcc,40.58
2023-07-08T02:57:00,mcc,39.49
2023-07-08T02:58:00,mcc,37.11
2023-07-08T02:59:00,mcc,44.87
2023-07-08T03:00:00,mcc,37.65
2023-07-08T03:01:00,mcc,37.72
2023-07-08T03:02:00,mcc,37.64
2023-07-08T03:03:00,mcc,37.92
2023-07-08T03:04:00,mcc,36.95
2023-07-08T03:05:00,mcc,34.72
2023-07-08T03:06:00,mcc,35.27
2023-07-08T03:07:00,mcc,35.56
2023-07-08T03:08:00,mcc,36.11
2023-07-08T03:09:00,mcc,36.89
2023-07-08T03:10:00,mcc,36.96
2023-07-08T03:11:00,mcc,38.66
2023-07-08T03:12:00,mcc,39.76
2023-07-08T03:13:00,mcc,38.54
2023-07-08T03:14:00,mcc,39.57
2023-07-08T03:15:00,mcc,39.83
2023-07-08T03:16:00,mcc,40.22
2023-07-08T03:17:00,mcc,41.59
2023-07-08T03:18:00,mcc,42.12
2023-07-08T03:19:00,mcc,43.53
2023-07-08T03:20:00,mcc,43.89
2023-07-08T03:21:00,mcc,42.87
2023-07-08T03:22:00,mcc,43.29
2023-07-08T03:23:00,mcc,40.64
2023-07-08T03:24:00,mcc,40.17
2023-07-08T03:25:00,mcc,37.83
2023-07-08T03:26:00,mcc,39.96
2023-07-08T03:27:00,mcc,39.24
2023-07-08T03:28:00,mcc,37.84
2023-07-08T03:29:00,mcc,37.82
2023-07-08T03:30:00,mcc,35.44
2023-07-08T03:31:00,mcc,36.30
2023-07-08T03:32:00,mcc,37.23
2023-07-08T03:33:00,mcc,37.22
2023-07-08T03:34:00,mcc,38.88
2023-07-08T03:35:00,mcc,37.45
2023-07-08T03:36:00,mcc,35.70
2023-07-08T03:37:00,mcc,35.07
2023-07-08T03:38:00,mcc,35.66
2023-07-08T03:39:00,mcc,35.11
2023-07-08T03:40:00,mcc,43.56
2023-07-08T03:41:00,mcc,35.00
2023-07-08T03:42:00,mcc,37.46
2023-07-08T03:43:00,mcc,34.94
2023-07-08T03:44:00,mcc,34.65
2023-07-08T03:45:00,mcc,35.63
2023-07-08T03:46:00,mcc,35.28
2023-07-08T03:47:00,mcc,35.86
2023-07-08T03:48:00,mcc,35.58
2023-07-08T03:49:00,mcc,39.21
2023-07-08T03:50:00,mcc,39.94
2023-07-08T03:51:00,mcc,38.42
2023-07-08T03:52:00,mcc,38.20
2023-07-08T03:53:00,mcc,38.30
2023-07-08T03:54:00,mcc,39.28
2023-07-08T03:55:00,mcc,38.22
2023-07-08T03:56:00,mcc,38.25
2023-07-08T03:57:00,mcc,37.92
2023-07-08T03:58:00,mcc,37.26
2023-07-08T03:59:00,mcc,35.02
2023-07-08T04:00:00,mcc,44.18
2023-07-08T04:01:00,mcc,35.50
2023-07-08T04:02:00,mcc,36.05
2023-07-08T04:03:00,mcc,36.24
2023-07-08T04:04:00,mcc,36.01
2023-07-08T04:05:00,mcc,38.51
2023-07-08T04:06:00,mcc,37.62
2023-07-08T04:07:00,mcc,38.81
2023-07-08T04:08:00,mcc,39.22
2023-07-08T04:09:00,mcc,40.43
2023-07-08T04:10:00,mcc,41.81
2023-07-08T04:11:00,mcc,39.89
2023-07-08T04:12:00,mcc,40.18
2023-07-08T04:13:00,mcc,40.91
2023-07-08T04:14:00,mcc,38.14
2023-07-08T04:15:00,mcc,38.62
2023-07-08T04:16:00,mcc,36.45
2023-07-08T04:17:00,mcc,35.07
2023-07-08T04:18:00,mcc,35.51
2023-07-08T04:19:00,mcc,35.86
2023-07-08T04:20:00,mcc,37.56
2023-07-08T04:21:00,mcc,37.49
2023-07-08T04:22:00,mcc,35.81
2023-07-08T04:23:00,mcc,37.82
2023-07-08T04:24:00,mcc,37.94
2023-07-08T04:25:00,mcc,36.69
2023-07-08T04:26:00,mcc,37.02
2023-07-08T04:27:00,mcc,40.60
2023-07-08T04:28:00,mcc,40.12
2023-07-08T04:29:00,mcc,39.08
2023-07-08T04:30:00,mcc,37.80
2023-07-08T04:31:00,mcc,37.37
2023-07-08T04:32:00,mcc,36.29
2023-07-08T04:33:00,mcc,36.16
2023-07-08T04:34:00,mcc,37.98
2023-07-08T04:35:00,mcc,35.85
2023-07-08T04:36:00,mcc,42.29
2023-07-08T04:37:00,mcc,41.39
2023-07-08T04:38:00,mcc,40.91
2023-07-08T04:39:00,mcc,40.84
2023-07-08T04:40:00,mcc,40.84
2023-07-08T04:41:00,mcc,34.50
2023-07-08T04:42:00,mcc,44.18
2023-07-08T04:43:00,mcc,36.07
2023-07-08T04:44:00,mcc,34.09
2023-07-08T04:45:00,mcc,34.09
2023-07-08T04:46:00,mcc,34.89
2023-07-08T04:47:00,mcc,36.97
2023-07-08T04:48:00,mcc,37.62
2023-07-08T04:49:00,mcc,38.02
2023-07-08T04:50:00,mcc,40.90
2023-07-08T04:51:00,mcc,40.67
2023-07-08T04:52:00,mcc,40.27
2023-07-08T04:53:00,mcc,38.21
2023-07-08T04:54:00,mcc,38.81
2023-07-08T04:55:00,mcc,39.92
2023-07-08T04:56:00,mcc,37.13
2023-07-08T04:57:00,mcc,37.09
2023-07-08T04:58:00,mcc,39.57
2023-07-08T04:59:00,mcc,39.81
2023-07-08T05:00:00,mcc,38.38
2023-07-08T05:01:00,mcc,41.49
2023-07-08T05:02:00,mcc,41.18
2023-07-08T05:03:00,mcc,47.72
2023-07-08T05:04:00,mcc,37.87
2023-07-08T05:05:00,mcc,38.15
2023-07-08T05:06:00,mcc,37.34
2023-07-08T05:07:00,mcc,36.63
2023-07-08T05:08:00,mcc,36.69
2023-07-08T05:09:00,mcc,36.63
2023-07-08T05:10:00,mcc,35.19
2023-07-08T05:11:00,mcc,34.38
2023-07-08T05:12:00,mcc,34.19
2023-07-08T05:13:00,mcc,36.33
2023-07-08T05:14:00,mcc,34.54
2023-07-08T05:15:00,mcc,34.97
2023-07-08T05:16:00,mcc,36.52
2023-07-08T05:17:00,mcc,36.39
2023-07-08T05:18:00,mcc,34.25
2023-07-08T05:19:00,mcc,33.54
2023-07-08T05:20:00,mcc,36.14
2023-07-08T05:21:00,mcc,33.95
2023-07-08T05:22:00,mcc,34.10
2023-07-08T05:23:00,mcc,41.76
2023-07-08T05:24:00,mcc,33.44
2023-07-08T05:25:00,mcc,34.02
2023-07-08T05:26:00,mcc,35.58
2023-07-08T05:27:00,mcc,36.15
2023-07-08T05:28:00,mcc,37.95
2023-07-08T05:29:00,mcc,36.55
2023-07-08T05:30:00,mcc,36.06
2023-07-08T05:31:00,mcc,35.66
2023-07-08T05:32:00,mcc,35.52
2023-07-08T05:33:00,mcc,36.76
2023-07-08T05:34:00,mcc,37.83
2023-07-08T05:35:00,mcc,38.88
2023-07-08T05:36:00,mcc,36.59
2023-07-08T05:37:00,mcc,35.77
2023-07-08T05:38:00,mcc,36.09
2023-07-08T05:39:00,mcc,35.82
2023-07-08T05:40:00,mcc,34.58
2023-07-08T05:41:00,mcc,33.65
2023-07-08T05:42:00,mcc,36.11
2023-07-08T05:43:00,mcc,34.87
2023-07-08T05:44:00,mcc,37.24
2023-07-08T05:45:00,mcc,37.79
2023-07-08T05:46:00,mcc,37.86
2023-07-08T05:47:00,mcc,35.58
2023-07-08T05:48:00,mcc,34.38
2023-07-08T05:49:00,mcc,36.37
2023-07-08T05:50:00,mcc,37.21
2023-07-08T05:51:00,mcc,35.90
2023-07-08T05:52:00,mcc,35.28
2023-07-08T05:53:00,mcc,47.37
2023-07-08T05:54:00,mcc,37.08
2023-07-08T05:55:00,mcc,38.57
2023-07-08T05:56:00,mcc,39.01
2023-07-08T05:57:00,mcc,40.08
2023-07-08T05:58:00,mcc,38.94
2023-07-08T05:59:00,mcc,38.47
2023-07-08T06:00:00,mcc,36.29
2023-07-08T06:01:00,mcc,38.12
2023-07-08T06:02:00,mcc,36.78
2023-07-08T06:03:00,mcc,37.31
2023-07-08T06:04:00,mcc,47.76
2023-07-08T06:05:00,mcc,35.75
2023-07-08T06:06:00,mcc,35.73
2023-07-08T06:07:00,mcc,35.71
2023-07-08T06:08:00,mcc,35.49
2023-07-08T06:09:00,mcc,33.25
2023-07-08T06:10:00,mcc,34.76
2023-07-08T06:11:00,mcc,35.99
2023-07-08T06:12:00,mcc,36.75
2023-07-08T06:13:00,mcc,34.84
2023-07-08T06:14:00,mcc,34.61
2023-07-08T06:15:00,mcc,36.06
2023-07-08T06:16:00,mcc,35.06
2023-07-08T06:17:00,mcc,36.86
2023-07-08T06:18:00,mcc,37.15
2023-07-08T06:19:00,mcc,37.05
2023-07-08T06:20:00,mcc,37.59
2023-07-08T06:21:00,mcc,35.64
2023-07-08T06:22:00,mcc,36.26
2023-07-08T06:23:00,mcc,35.87
2023-07-08T06:24:00,mcc,35.29
2023-07-08T06:25:00,mcc,41.11
2023-07-08T06:26:00,mcc,42.02
2023-07-08T06:27:00,mcc,43.30
2023-07-08T06:28:00,mcc,45.95
2023-07-08T06:29:00,mcc,45.91
2023-07-08T06:30:00,mcc,46.84
2023-07-08T06:31:00,mcc,47.27
2023-07-08T06:32:00,mcc,48.24
2023-07-08T06:33:00,mcc,48.16
2023-07-08T06:34:00,mcc,50.15
2023-07-08T06:35:00,mcc,47.86
2023-07-08T06:36:00,mcc,47.80
2023-07-08T06:37:00,mcc,49.38
2023-07-08T06:38:00,mcc,49.83
2023-07-08T06:39:00,mcc,50.44
2023-07-08T06:40:00,mcc,49.87
2023-07-08T06:41:00,mcc,50.20
2023-07-08T06:42:00,mcc,49.13
2023-07-08T06:43:00,mcc,55.37
2023-07-08T06:44:00,mcc,48.37
2023-07-08T06:45:00,mcc,49.77
2023-07-08T06:46:00,mcc,49.13
2023-07-08T06:47:00,mcc,47.08
2023-07-08T06:48:00,mcc,46.09
2023-07-08T06:49:00,mcc,49.44
2023-07-08T06:50:00,mcc,47.76
2023-07-08T06:51:00,mcc,47.21
2023-07-08T06:52:00,mcc,47.54
2023-07-08T06:53:00,mcc,47.51
2023-07-08T06:54:00,mcc,47.48
2023-07-08T06:55:00,mcc,45.92
2023-07-08T06:56:00,mcc,47.99
2023-07-08T06:57:00,mcc,46.03
2023-07-08T06:58:00,mcc,45.94
2023-07-08T06:59:00,mcc,46.48
2023-07-08T07:00:00,mcc,44.37
2023-07-08T07:01:00,mcc,43.13
2023-07-08T07:02:00,mcc,43.13
2023-07-08T07:03:00,mcc,52.53
2023-07-08T07:04:00,mcc,42.81
2023-07-08T07:05:00,mcc,42.62
2023-07-08T07:06:00,mcc,42.51
2023-07-08T07:07:00,mcc,45.91
2023-07-08T07:08:00,mcc,45.14
2023-07-08T07:09:00,mcc,45.38
2023-07-08T07:10:00,mcc,47.91
2023-07-08T07:11:00,mcc,46.11
2023-07-08T07:12:00,mcc,46.72
2023-07-08T07:13:00,mcc,48.53
2023-07-08T07:14:00,mcc,47.29
2023-07-08T07:15:00,mcc,48.26
2023-07-08T07:16:00,mcc,45.17
2023-07-08T07:17:00,mcc,46.69
2023-07-08T07:18:00,mcc,44.45
2023-07-08T07:19:00,mcc,44.96
2023-07-08T07:20:00,mcc,46.78
2023-07-08T07:21:00,mcc,46.77
2023-07-08T07:22:00,mcc,46.35
2023-07-08T07:23:00,mcc,54.95
2023-07-08T07:24:00,mcc,48.20
2023-07-08T07:25:00,mcc,45.83
2023-07-08T07:26:00,mcc,45.97
2023-07-08T07:27:00,mcc,47.29
2023-07-08T07:28:00,mcc,47.79
2023-07-08T07:29:00,mcc,47.98
2023-07-08T07:30:00,mcc,47.11
2023-07-08T07:31:00,mcc,48.81
2023-07-08T07:32:00,mcc,48.93
2023-07-08T07:33:00,mcc,44.92
2023-07-08T07:34:00,mcc,48.46
2023-07-08T07:35:00,mcc,45.95
2023-07-08T07:36:00,mcc,46.25
2023-07-08T07:37:00,mcc,45.55
2023-07-08T07:38:00,mcc,45.66
2023-07-08T07:39:00,mcc,48.91
2023-07-08T07:40:00,mcc,48.94
2023-07-08T07:41:00,mcc,51.44
2023-07-08T07:42:00,mcc,50.63
2023-07-08T07:43:00,mcc,58.22
2023-07-08T07:44:00,mcc,49.91
2023-07-08T07:45:00,mcc,50.89
2023-07-08T07:46:00,mcc,52.56
2023-07-08T07:47:00,mcc,49.73
2023-07-08T07:48:00,mcc,49.81
2023-07-08T07:49:00,mcc,47.55
2023-07-08T07:50:00,mcc,47.04
2023-07-08T07:51:00,mcc,48.95
2023-07-08T07:52:00,mcc,50.27
2023-07-08T07:53:00,mcc,47.74
2023-07-08T07:54:00,mcc,46.21
2023-07-08T07:55:00,mcc,47.17
2023-07-08T07:56:00,mcc,45.35
2023-07-08T07:57:00,mcc,46.27
2023-07-08T07:58:00,mcc,47.17
2023-07-08T07:59:00,mcc,46.75
2023-07-08T08:00:00,mcc,48.52
2023-07-08T08:01:00,mcc,46.67
2023-07-08T08:02:00,mcc,54.35
2023-07-08T08:03:00,mcc,46.88
2023-07-08T08:04:00,mcc,45.97
2023-07-08T08:05:00,mcc,45.72
2023-07-08T08:06:00,mcc,45.85
2023-07-08T08:07:00,mcc,58.24
2023-07-08T08:08:00,mcc,55.70
2023-07-08T08:09:00,mcc,57.37
2023-07-08T08:10:00,mcc,59.63
2023-07-08T08:11:00,mcc,49.33
2023-07-08T08:12:00,mcc,49.46
2023-07-08T08:13:00,mcc,51.71
2023-07-08T08:14:00,mcc,53.88
2023-07-08T08:15:00,mcc,51.75
2023-07-08T08:16:00,mcc,49.68
2023-07-08T08:17:00,mcc,49.49
2023-07-08T08:18:00,mcc,50.48
2023-07-08T08:19:00,mcc,48.16
2023-07-08T08:20:00,mcc,47.82
2023-07-08T08:21:00,mcc,48.81
2023-07-08T08:22:00,mcc,55.69
2023-07-08T08:23:00,mcc,45.63
2023-07-08T08:24:00,mcc,45.71
2023-07-08T08:25:00,mcc,47.03
2023-07-08T08:26:00,mcc,46.07
2023-07-08T08:27:00,mcc,45.77
2023-07-08T08:28:00,mcc,46.57
2023-07-08T08:29:00,mcc,45.55
2023-07-08T08:30:00,mcc,45.05
2023-07-08T08:31:00,mcc,46.09
2023-07-08T08:32:00,mcc,46.84
2023-07-08T08:33:00,mcc,46.85
2023-07-08T08:34:00,mcc,47.43
2023-07-08T08:35:00,mcc,49.94
2023-07-08T08:36:00,mcc,51.29
2023-07-08T08:37:00,mcc,50.23
2023-07-08T08:38:00,mcc,50.06
2023-07-08T08:39:00,mcc,47.78
2023-07-08T08:40:00,mcc,46.57
2023-07-08T08:41:00,mcc,53.51
2023-07-08T08:42:00,mcc,46.20
2023-07-08T08:43:00,mcc,46.72
2023-07-08T08:44:00,mcc,43.79
2023-07-08T08:45:00,mcc,44.72
2023-07-08T08:46:00,mcc,46.36
2023-07-08T08:47:00,mcc,47.08
2023-07-08T08:48:00,mcc,46.95
2023-07-08T08:49:00,mcc,47.77
2023-07-08T08:50:00,mcc,58.68
2023-07-08T08:51:00,mcc,47.99
2023-07-08T08:52:00,mcc,49.04
2023-07-08T08:53:00,mcc,49.45
2023-07-08T08:54:00,mcc,49.04
2023-07-08T08:55:00,mcc,46.83
2023-07-08T08:56:00,mcc,47.95
2023-07-08T08:57:00,mcc,49.93
2023-07-08T08:58:00,mcc,49.17
2023-07-08T08:59:00,mcc,46.96
2023-07-08T09:00:00,mcc,56.28
2023-07-08T09:01:00,mcc,47.72
2023-07-08T09:02:00,mcc,45.96
2023-07-08T09:03:00,mcc,45.89
2023-07-08T09:04:00,mcc,46.45
2023-07-08T09:05:00,mcc,44.50
2023-07-08T09:06:00,mcc,44.23
2023-07-08T09:07:00,mcc,46.53
2023-07-08T09:08:00,mcc,46.11
2023-07-08T09:09:00,mcc,47.21
2023-07-08T09:10:00,mcc,45.33
2023-07-08T09:11:00,mcc,47.63
2023-07-08T09:12:00,mcc,45.34
2023-07-08T09:13:00,mcc,46.96
2023-07-08T09:14:00,mcc,48.70
2023-07-08T09:15:00,mcc,48.55
2023-07-08T09:16:00,mcc,48.36
2023-07-08T09:17:00,mcc,47.10
2023-07-08T09:18:00,mcc,47.71
2023-07-08T09:19:00,mcc,47.06
2023-07-08T09:20:00,mcc,56.60
2023-07-08T09:21:00,mcc,49.22
2023-07-08T09:22:00,mcc,49.04
2023-07-08T09:23:00,mcc,50.87
2023-07-08T09:24:00,mcc,49.82
2023-07-08T09:25:00,mcc,51.96
2023-07-08T09:26:00,mcc,48.38
2023-07-08T09:27:00,mcc,48.47
2023-07-08T09:28:00,mcc,47.20
2023-07-08T09:29:00,mcc,45.61
2023-07-08T09:30:00,mcc,45.39
2023-07-08T09:31:00,mcc,43.87
2023-07-08T09:32:00,mcc,46.10
2023-07-08T09:33:00,mcc,45.30
2023-07-08T09:34:00,mcc,44.60
2023-07-08T09:35:00,mcc,45.40
2023-07-08T09:36:00,mcc,44.94
2023-07-08T09:37:00,mcc,44.80
2023-07-08T09:38:00,mcc,47.05
2023-07-08T09:39:00,mcc,47.29
2023-07-08T09:40:00,mcc,56.16
2023-07-08T09:41:00,mcc,47.50
2023-07-08T09:42:00,mcc,49.85
2023-07-08T09:43:00,mcc,49.12
2023-07-08T09:44:00,mcc,50.32
2023-07-08T09:45:00,mcc,49.83
2023-07-08T09:46:00,mcc,49.81
2023-07-08T09:47:00,mcc,51.56
2023-07-08T09:48:00,mcc,49.91
2023-07-08T09:49:00,mcc,50.27
2023-07-08T09:50:00,mcc,47.66
2023-07-08T09:51:00,mcc,47.82
2023-07-08T09:52:00,mcc,48.72
2023-07-08T09:53:00,mcc,48.15
2023-07-08T09:54:00,mcc,48.20
2023-07-08T09:55:00,mcc,50.43
2023-07-08T09:56:00,mcc,50.20
2023-07-08T09:57:00,mcc,48.60
2023-07-08T09:58:00,mcc,48.33
2023-07-08T09:59:00,mcc,48.39
2023-07-08T10:00:00,mcc,50.09
2023-07-08T10:01:00,mcc,42.78
2023-07-08T10:02:00,mcc,42.20
2023-07-08T10:03:00,mcc,43.47
2023-07-08T10:04:00,mcc,42.89
2023-07-08T10:05:00,mcc,42.88
2023-07-08T10:06:00,mcc,45.41
2023-07-08T10:07:00,mcc,44.93
2023-07-08T10:08:00,mcc,45.63
2023-07-08T10:09:00,mcc,46.42
2023-07-08T10:10:00,mcc,45.35
2023-07-08T10:11:00,mcc,45.88
2023-07-08T10:12:00,mcc,44.95
2023-07-08T10:13:00,mcc,42.59
2023-07-08T10:14:00,mcc,43.15
2023-07-08T10:15:00,mcc,41.87
2023-07-08T10:16:00,mcc,41.34
2023-07-08T10:17:00,mcc,42.27
2023-07-08T10:18:00,mcc,42.71
2023-07-08T10:19:00,mcc,45.97
2023-07-08T10:20:00,mcc,44.73
2023-07-08T10:21:00,mcc,43.82
2023-07-08T10:22:00,mcc,44.69
2023-07-08T10:23:00,mcc,44.44
2023-07-08T10:24:00,mcc,43.22
2023-07-08T10:25:00,mcc,42.41
2023-07-08T10:26:00,mcc,41.26
2023-07-08T10:27:00,mcc,53.26
2023-07-08T10:28:00,mcc,53.77
2023-07-08T10:29:00,mcc,46.26
2023-07-08T10:30:00,mcc,46.30
2023-07-08T10:31:00,mcc,38.20
2023-07-08T10:32:00,mcc,39.27
2023-07-08T10:33:00,mcc,38.67
2023-07-08T10:34:00,mcc,38.74
2023-07-08T10:35:00,mcc,41.75
2023-07-08T10:36:00,mcc,36.63
2023-07-08T10:37:00,mcc,36.01
2023-07-08T10:38:00,mcc,36.03
2023-07-08T10:39:00,mcc,35.42
2023-07-08T10:40:00,mcc,34.99
2023-07-08T10:41:00,mcc,42.95
2023-07-08T10:42:00,mcc,35.55
2023-07-08T10:43:00,mcc,36.82
2023-07-08T10:44:00,mcc,36.91
2023-07-08T10:45:00,mcc,34.15
2023-07-08T10:46:00,mcc,33.86
2023-07-08T10:47:00,mcc,33.36
2023-07-08T10:48:00,mcc,33.95
2023-07-08T10:49:00,mcc,34.31
2023-07-08T10:50:00,mcc,34.12
2023-07-08T10:51:00,mcc,38.77
2023-07-08T10:52:00,mcc,37.55
2023-07-08T10:53:00,mcc,34.72
2023-07-08T10:54:00,mcc,34.33
2023-07-08T10:55:00,mcc,34.29
2023-07-08T10:56:00,mcc,35.61
2023-07-08T10:57:00,mcc,36.43
2023-07-08T10:58:00,mcc,34.09
2023-07-08T10:59:00,mcc,36.84
2023-07-08T11:00:00,mcc,38.35
2023-07-08T11:01:00,mcc,45.55
2023-07-08T11:02:00,mcc,38.93
2023-07-08T11:03:00,mcc,37.88
2023-07-08T11:04:00,mcc,37.66
2023-07-08T11:05:00,mcc,36.71
2023-07-08T11:06:00,mcc,35.56
2023-07-08T11:07:00,mcc,36.65
2023-07-08T11:08:00,mcc,37.79
2023-07-08T11:09:00,mcc,34.79
2023-07-08T11:10:00,mcc,35.51
2023-07-08T11:11:00,mcc,36.06
2023-07-08T11:12:00,mcc,34.67
2023-07-08T11:13:00,mcc,37.76
2023-07-08T11:14:00,mcc,38.34
2023-07-08T11:15:00,mcc,37.90
2023-07-08T11:16:00,mcc,41.27
2023-07-08T11:17:00,mcc,40.73
2023-07-08T11:18:00,mcc,38.95
2023-07-08T11:19:00,mcc,39.41
2023-07-08T11:20:00,mcc,38.24
2023-07-08T11:21:00,mcc,44.39
2023-07-08T11:22:00,mcc,35.57
2023-07-08T11:23:00,mcc,35.10
2023-07-08T11:24:00,mcc,33.78
2023-07-08T11:25:00,mcc,34.30
2023-07-08T11:26:00,mcc,33.01
2023-07-08T11:27:00,mcc,33.19
2023-07-08T11:28:00,mcc,33.16
2023-07-08T11:29:00,mcc,32.79
2023-07-08T11:30:00,mcc,33.92
2023-07-08T11:31:00,mcc,34.96
2023-07-08T11:32:00,mcc,36.43
2023-07-08T11:33:00,mcc,38.13
2023-07-08T11:34:00,mcc,38.37
2023-07-08T11:35:00,mcc,38.48
2023-07-08T11:36:00,mcc,41.06
2023-07-08T11:37:00,mcc,41.32
2023-07-08T11:38:00,mcc,39.80
2023-07-08T11:39:00,mcc,39.11
2023-07-08T11:40:00,mcc,46.48
2023-07-08T11:41:00,mcc,38.87
2023-07-08T11:42:00,mcc,37.11
2023-07-08T11:43:00,mcc,36.39
2023-07-08T11:44:00,mcc,34.03
2023-07-08T11:45:00,mcc,34.07
2023-07-08T11:46:00,mcc,33.87
2023-07-08T11:47:00,mcc,33.87
2023-07-08T11:48:00,mcc,33.96
2023-07-08T11:49:00,mcc,34.09
2023-07-08T11:50:00,mcc,35.01
2023-07-08T11:51:00,mcc,36.34
2023-07-08T11:52:00,mcc,36.11
2023-07-08T11:53:00,mcc,39.01
2023-07-08T11:54:00,mcc,37.39
2023-07-08T11:55:00,mcc,36.72
2023-07-08T11:56:00,mcc,37.39
2023-07-08T11:57:00,mcc,37.65
2023-07-08T11:58:00,mcc,38.63
2023-07-08T11:59:00,mcc,37.94
2023-07-08T12:00:00,mcc,37.23
2023-07-08T12:01:00,mcc,45.11
2023-07-08T12:02:00,mcc,36.54
2023-07-08T12:03:00,mcc,36.49
2023-07-08T12:04:00,mcc,38.81
2023-07-08T12:05:00,mcc,38.82
2023-07-08T12:06:00,mcc,40.17
2023-07-08T12:07:00,mcc,41.82
2023-07-08T12:08:00,mcc,42.16
2023-07-08T12:09:00,mcc,43.44
2023-07-08T12:10:00,mcc,43.63
2023-07-08T12:11:00,mcc,44.82
2023-07-08T12:12:00,mcc,45.19
2023-07-08T12:13:00,mcc,44.99
2023-07-08T12:14:00,mcc,43.15
2023-07-08T12:15:00,mcc,43.28
2023-07-08T12:16:00,mcc,42.48
2023-07-08T12:17:00,mcc,40.08
2023-07-08T12:18:00,mcc,37.98
2023-07-08T12:19:00,mcc,38.64
2023-07-08T12:20:00,mcc,37.67
2023-07-08T12:21:00,mcc,36.80
2023-07-08T12:22:00,mcc,35.67
2023-07-08T12:23:00,mcc,36.08
2023-07-08T12:24:00,mcc,36.92
2023-07-08T12:25:00,mcc,36.46
2023-07-08T12:26:00,mcc,38.95
2023-07-08T12:27:00,mcc,38.26
2023-07-08T12:28:00,mcc,37.94
2023-07-08T12:29:00,mcc,37.34
2023-07-08T12:30:00,mcc,38.22
2023-07-08T12:31:00,mcc,38.16
2023-07-08T12:32:00,mcc,39.22
2023-07-08T12:33:00,mcc,40.01
2023-07-08T12:34:00,mcc,39.28
2023-07-08T12:35:00,mcc,39.89
2023-07-08T12:36:00,mcc,38.76
2023-07-08T12:37:00,mcc,38.83
2023-07-08T12:38:00,mcc,38.75
2023-07-08T12:39:00,mcc,38.29
2023-07-08T12:40:00,mcc,38.61
2023-07-08T12:41:00,mcc,40.91
2023-07-08T12:42:00,mcc,43.03
2023-07-08T12:43:00,mcc,41.69
2023-07-08T12:44:00,mcc,41.21
2023-07-08T12:45:00,mcc,52.92
2023-07-08T12:46:00,mcc,41.88
2023-07-08T12:47:00,mcc,40.02
2023-07-08T12:48:00,mcc,39.75
2023-07-08T12:49:00,mcc,39.01
2023-07-08T12:50:00,mcc,37.05
2023-07-08T12:51:00,mcc,35.16
2023-07-08T12:52:00,mcc,36.95
2023-07-08T12:53:00,mcc,37.27
2023-07-08T12:54:00,mcc,39.96
2023-07-08T12:55:00,mcc,39.96
2023-07-08T12:56:00,mcc,40.37
2023-07-08T12:57:00,mcc,38.96
2023-07-08T12:58:00,mcc,39.61
2023-07-08T12:59:00,mcc,40.70
2023-07-08T13:00:00,mcc,40.99
2023-07-08T13:01:00,mcc,41.43
2023-07-08T13:02:00,mcc,42.63
2023-07-08T13:03:00,mcc,41.53
2023-07-08T13:04:00,mcc,41.15
2023-07-08T13:05:00,mcc,40.26
2023-07-08T13:06:00,mcc,38.18
2023-07-08T13:07:00,mcc,36.23
2023-07-08T13:08:00,mcc,36.66
2023-07-08T13:09:00,mcc,36.54
2023-07-08T13:10:00,mcc,35.95
2023-07-08T13:11:00,mcc,35.18
2023-07-08T13:12:00,mcc,36.41
2023-07-08T13:13:00,mcc,34.90
2023-07-08T13:14:00,mcc,34.73
2023-07-08T13:15:00,mcc,35.34
2023-07-08T13:16:00,mcc,37.23
2023-07-08T13:17:00,mcc,38.41
2023-07-08T13:18:00,mcc,39.61